Volver al catálogo

THORAD AGENA D DEB

ActivoPO
NORAD 4868·DEBRIS·🇺🇸 United States

Lanzado Apr 8, 1970 desde Vandenberg Space Force Base

Loading…

Próximos Pases

TLE

Source: Space-Track
1 04868U 70025EY  26228.15891885  .00000551  00000-0  39218-3 0  9992
2 04868  99.7157 304.1805 0054144 256.9682 102.5433 14.01575962843613

Sigue THORAD AGENA D DEB en tiempo real con AllMySat

Download on the App Store